Location: Curupao
(10.4996°N, 66.6442°W)
Time: 22:32:06
(UTC+00:00)

Cosmos 1606 - Pass Details

Date: 23 May 2024
Orbit: 458 x 472 km, 82.5° (Epoch: 23 June)

Event Time Altitude Azimuth Distance (km) Brightness Sun altitude
Rises 09:33:10 0° 352° (N) 2,477 6.4 -7.8°
Reaches altitude 10° 09:35:14 10° 350° (N) 1,606 5.4 -7.3°
Maximum altitude 09:38:43 69° 266° (W) 500 2.4 -6.5°
Drops below altitude 10° 09:42:14 10° 183° (S) 1,617 5.0 -5.7°
Sets 09:44:20 0° 180° (S) 2,497 5.9 -5.3°
